TimePDT,TemperatureF,Dew PointF,Humidity,Sea Level PressureIn,VisibilityMPH,Wind Direction,Wind SpeedMPH,Gust SpeedMPH,PrecipitationIn,Events,Conditions,WindDirDegrees,DateUTC
12:15 AM,42.8,28.4,57,30.08,10.0,NNE,8.1,-,N/A,,Clear,20,2013-05-15 07:15:00
12:35 AM,42.8,28.4,57,30.08,10.0,NNE,5.8,-,N/A,,Clear,20,2013-05-15 07:35:00
12:55 AM,42.8,28.4,57,30.08,10.0,North,4.6,-,N/A,,Clear,350,2013-05-15 07:55:00
1:15 AM,42.8,28.4,57,30.08,10.0,Calm,Calm,-,N/A,,Clear,0,2013-05-15 08:15:00
1:35 AM,42.8,28.4,57,30.08,10.0,Calm,Calm,-,N/A,,Clear,0,2013-05-15 08:35:00
1:55 AM,39.2,28.4,65,30.07,10.0,Calm,Calm,-,N/A,,Clear,0,2013-05-15 08:55:00
2:15 AM,39.2,28.4,65,30.07,10.0,North,4.6,-,N/A,,Clear,350,2013-05-15 09:15:00
2:35 AM,39.2,26.6,61,30.06,10.0,North,6.9,-,N/A,,Clear,350,2013-05-15 09:35:00
2:55 AM,41.0,28.4,61,30.06,10.0,NNW,8.1,-,N/A,,Clear,340,2013-05-15 09:55:00
3:15 AM,39.2,26.6,61,30.06,10.0,West,5.8,-,N/A,,Clear,280,2013-05-15 10:15:00
3:35 AM,37.4,26.6,65,30.05,10.0,Calm,Calm,-,N/A,,Clear,0,2013-05-15 10:35:00
3:55 AM,37.4,26.6,65,30.05,10.0,Calm,Calm,-,N/A,,Clear,0,2013-05-15 10:55:00
4:15 AM,39.2,28.4,65,30.05,10.0,Calm,Calm,-,N/A,,Clear,0,2013-05-15 11:15:00
4:35 AM,39.2,28.4,65,30.05,10.0,Calm,Calm,-,N/A,,Clear,0,2013-05-15 11:35:00
4:55 AM,35.6,24.8,65,30.06,10.0,SSE,4.6,-,N/A,,Clear,150,2013-05-15 11:55:00
5:15 AM,35.6,26.6,70,30.05,10.0,Calm,Calm,-,N/A,,Clear,0,2013-05-15 12:15:00
5:35 AM,37.4,26.6,65,30.06,10.0,Calm,Calm,-,N/A,,Clear,0,2013-05-15 12:35:00
5:55 AM,37.4,26.6,65,30.07,10.0,SE,3.5,-,N/A,,Clear,130,2013-05-15 12:55:00
6:15 AM,37.4,28.4,70,30.07,10.0,Calm,Calm,-,N/A,,Clear,0,2013-05-15 13:15:00
6:35 AM,39.2,28.4,65,30.07,10.0,Calm,Calm,-,N/A,,Clear,0,2013-05-15 13:35:00
6:55 AM,42.8,30.2,61,30.08,10.0,Calm,Calm,-,N/A,,Clear,0,2013-05-15 13:55:00
7:15 AM,42.8,30.2,61,30.08,10.0,Calm,Calm,-,N/A,,Clear,0,2013-05-15 14:15:00
7:35 AM,46.4,32.0,57,30.07,10.0,Calm,Calm,-,N/A,,Clear,0,2013-05-15 14:35:00
7:55 AM,48.2,33.8,58,30.07,10.0,Calm,Calm,-,N/A,,Clear,0,2013-05-15 14:55:00
8:15 AM,48.2,30.2,50,30.07,10.0,NW,6.9,-,N/A,,Clear,310,2013-05-15 15:15:00
8:35 AM,48.2,30.2,50,30.06,10.0,North,6.9,-,N/A,,Clear,360,2013-05-15 15:35:00
8:55 AM,48.2,32.0,54,30.06,10.0,North,4.6,-,N/A,,Clear,10,2013-05-15 15:55:00
9:15 AM,48.2,33.8,58,30.05,10.0,NNE,5.8,-,N/A,,Clear,20,2013-05-15 16:15:00
9:35 AM,48.2,33.8,58,30.05,10.0,North,4.6,-,N/A,,Clear,360,2013-05-15 16:35:00
9:55 AM,51.8,33.8,50,30.04,10.0,Calm,Calm,-,N/A,,Clear,0,2013-05-15 16:55:00
10:15 AM,51.8,33.8,50,30.04,10.0,NE,4.6,-,N/A,,Clear,50,2013-05-15 17:15:00
10:35 AM,53.6,33.8,47,30.03,10.0,Calm,Calm,-,N/A,,Clear,0,2013-05-15 17:35:00
10:55 AM,53.6,33.8,47,30.04,10.0,Calm,Calm,-,N/A,,Clear,0,2013-05-15 17:55:00
11:15 AM,55.4,33.8,44,30.02,10.0,Calm,Calm,-,N/A,,Clear,0,2013-05-15 18:15:00
11:35 AM,57.2,33.8,41,30.02,10.0,NE,4.6,-,N/A,,Clear,40,2013-05-15 18:35:00
11:55 AM,59.0,33.8,39,30.01,10.0,NNE,3.5,-,N/A,,Clear,30,2013-05-15 18:55:00
12:15 PM,60.8,33.8,36,30.00,10.0,ENE,5.8,-,N/A,,Clear,60,2013-05-15 19:15:00
12:35 PM,60.8,32.0,34,29.99,10.0,Calm,Calm,-,N/A,,Clear,0,2013-05-15 19:35:00
12:55 PM,62.6,32.0,32,29.98,10.0,ENE,8.1,-,N/A,,Clear,60,2013-05-15 19:55:00
1:15 PM,62.6,32.0,32,29.97,10.0,North,5.8,-,N/A,,Clear,360,2013-05-15 20:15:00
1:35 PM,64.4,32.0,30,29.97,10.0,North,4.6,-,N/A,,Clear,350,2013-05-15 20:35:00
1:55 PM,64.4,33.8,32,29.96,10.0,NE,6.9,-,N/A,,Clear,40,2013-05-15 20:55:00
2:15 PM,66.2,33.8,30,29.95,10.0,NE,6.9,-,N/A,,Clear,50,2013-05-15 21:15:00
2:35 PM,66.2,35.6,32,29.94,10.0,North,6.9,-,N/A,,Clear,350,2013-05-15 21:35:00
2:55 PM,66.2,33.8,30,29.94,10.0,NNW,3.5,-,N/A,,Clear,330,2013-05-15 21:55:00
3:15 PM,66.2,33.8,30,29.93,10.0,NNW,3.5,-,N/A,,Clear,340,2013-05-15 22:15:00
3:35 PM,69.8,35.6,28,29.92,10.0,NNE,5.8,-,N/A,,Clear,30,2013-05-15 22:35:00
3:55 PM,69.8,35.6,28,29.91,10.0,NNE,9.2,-,N/A,,Clear,20,2013-05-15 22:55:00
4:15 PM,69.8,35.6,28,29.91,10.0,NNE,9.2,-,N/A,,Clear,20,2013-05-15 23:15:00
4:35 PM,69.8,35.6,28,29.91,10.0,North,9.2,-,N/A,,Scattered Clouds,10,2013-05-15 23:35:00
4:55 PM,69.8,35.6,28,29.90,10.0,NW,17.3,-,N/A,,Partly Cloudy,310,2013-05-15 23:55:00
5:15 PM,69.8,33.8,27,29.91,10.0,NW,18.4,-,N/A,,Partly Cloudy,310,2013-05-16 00:15:00
5:35 PM,68.0,33.8,28,29.92,10.0,WNW,18.4,23.0,N/A,,Clear,300,2013-05-16 00:35:00
5:55 PM,66.2,33.8,30,29.92,10.0,NW,20.7,-,N/A,,Clear,310,2013-05-16 00:55:00
6:15 PM,64.4,32.0,30,29.92,10.0,WNW,20.7,26.5,N/A,,Mostly Cloudy,300,2013-05-16 01:15:00
6:35 PM,62.6,30.2,30,29.92,10.0,NW,15.0,-,N/A,,Overcast,310,2013-05-16 01:35:00
6:55 PM,60.8,30.2,31,29.94,10.0,WNW,19.6,24.2,N/A,,Overcast,300,2013-05-16 01:55:00
7:15 PM,60.8,30.2,31,29.94,10.0,WNW,19.6,26.5,N/A,,Overcast,290,2013-05-16 02:15:00
7:35 PM,59.0,30.2,34,29.95,10.0,WNW,16.1,-,N/A,,Overcast,290,2013-05-16 02:35:00
7:55 PM,57.2,30.2,36,29.96,10.0,WNW,19.6,24.2,N/A,,Overcast,300,2013-05-16 02:55:00
8:15 PM,55.4,32.0,41,29.96,10.0,WNW,13.8,-,N/A,,Overcast,300,2013-05-16 03:15:00
8:35 PM,55.4,32.0,41,29.97,10.0,West,15.0,20.7,N/A,,Overcast,280,2013-05-16 03:35:00
8:55 PM,55.4,32.0,41,29.97,10.0,WNW,12.7,20.7,N/A,,Overcast,290,2013-05-16 03:55:00
9:15 PM,55.4,32.0,41,29.97,10.0,WNW,15.0,-,N/A,,Overcast,290,2013-05-16 04:15:00
9:55 PM,55.4,33.8,44,29.98,10.0,WNW,10.4,-,N/A,,Overcast,290,2013-05-16 04:55:00
10:15 PM,53.6,33.8,47,29.98,10.0,WNW,9.2,-,N/A,,Overcast,300,2013-05-16 05:15:00
10:35 PM,53.6,33.8,47,29.98,10.0,WNW,9.2,-,N/A,,Overcast,290,2013-05-16 05:35:00
10:55 PM,53.6,33.8,47,29.98,10.0,WNW,8.1,-,N/A,,Overcast,290,2013-05-16 05:55:00
11:15 PM,53.6,33.8,47,29.97,10.0,NW,8.1,-,N/A,,Overcast,310,2013-05-16 06:15:00
11:35 PM,53.6,33.8,47,29.97,10.0,NW,6.9,-,N/A,,Overcast,320,2013-05-16 06:35:00
11:55 PM,53.6,33.8,47,29.97,10.0,WNW,10.4,-,N/A,,Overcast,290,2013-05-16 06:55:00